Weather History for Pocatello, ID

Change the Weather History Date:

Monday, February 25, 2013

  Actual Average Record
Temperature  
Mean Temperature 20 °F 31 °F  
Max Temperature 33 °F 41 °F 62 °F (1986)
Min Temperature 7 °F 22 °F -4 °F (1952)
Degree Days  
Heating Degree Days 45 34  
Month to date heating degree days 880 929  
Since 1 July heating degree days 4988 5176  
Cooling Degree Days 0 0  
Month to date cooling degree days 0 0  
Year to date cooling degree days 0 0  
Moisture  
Dew Point 18 °F    
Average Humidity 71    
Maximum Humidity 92    
Minimum Humidity 49    
Precipitation  
Precipitation 0.06 in 0.04 in 0.34 in (1969)
Month to date precipitation 0.49 0.85  
Year to date precipitation 1.06 1.84  
Snow  
Snow 0.60 in - - ()
Month to date snowfall 6.8  
Since 1 July snowfall 33.4  
Snow Depth 1.00 in    
Sea Level Pressure  
Sea Level Pressure 30.15 in    
Wind  
Wind Speed 10 mph (SW)    
Max Wind Speed 23 mph    
Max Gust Speed 29 mph    
Visibility 6 miles    
Events Snow    
T = Trace of Precipitation, MM = Missing Value Source: NWS Daily Summary

Daily Weather History Graph

Daily Weather History Graph

Search for Another Location

Airport:

Trip Planner

Search our weather history database for the weather conditions in past years. The results will help you decide how hot, cold, wet, or windy it might be!

Date:

Astronomy

Feb. 25, 2013 Rise Set
Actual Time 7:12 AM MST 6:15 PM MST
Civil Twilight 6:43 AM MST 6:43 PM MST
Nautical Twilight 6:10 AM MST 7:16 PM MST
Astronomical Twilight 5:37 AM MST 7:49 PM MST
Moon 6:34 PM MST (2/25) 6:43 AM MST (2/25)
Length of Visible Light 12h 00m
Length of Day
11h 02m
Full, 100% of the Moon is Illuminated
Feb 25
Full
Feb 25
Full
Mar 4
Last Quarter
Mar 11
New
Mar 19
First Quarter

Hourly Weather History & Observations

Time (MST) Temp. Windchill Dew Point Humidity Pressure Visibility Wind Dir Wind Speed Gust Speed Precip Events Conditions
12:53 AM 21.9 °F 12.5 °F 14.0 °F 72% 30.33 in 10.0 mi South 8.1 mph - N/A   Clear
1:53 AM 19.9 °F 13.4 °F 12.0 °F 71% 30.33 in 10.0 mi South 4.6 mph - N/A   Clear
2:53 AM 16.0 °F - 10.9 °F 81% 30.32 in 10.0 mi Calm Calm - N/A   Clear
3:53 AM 14.0 °F 5.1 °F 9.0 °F 80% 30.32 in 10.0 mi NNE 5.8 mph - N/A   Clear
4:53 AM 14.0 °F 2.9 °F 10.0 °F 84% 30.32 in 10.0 mi NE 8.1 mph - N/A   Clear
5:53 AM 12.9 °F 2.6 °F 9.0 °F 84% 30.32 in 10.0 mi NNE 6.9 mph - N/A   Clear
6:53 AM 7.0 °F -3.3 °F 3.9 °F 87% 30.35 in 10.0 mi NW 5.8 mph - N/A   Clear
7:53 AM 9.0 °F - 5.0 °F 84% 30.32 in 10.0 mi Calm Calm - N/A   Clear
8:53 AM 16.0 °F 6.3 °F 10.9 °F 81% 30.28 in 10.0 mi North 6.9 mph - N/A   Clear
9:53 AM 28.0 °F 18.6 °F 15.1 °F 58% 30.21 in 10.0 mi North 10.4 mph - N/A   Clear
10:53 AM 30.9 °F - 15.1 °F 52% 30.17 in 10.0 mi Calm Calm - N/A   Clear
11:53 AM 32.0 °F 24.2 °F 16.0 °F 52% 30.14 in 10.0 mi South 9.2 mph 20.7 mph N/A   Mostly Cloudy
12:53 PM 30.0 °F 17.5 °F 17.1 °F 59% 30.13 in 10.0 mi South 19.6 mph 24.2 mph N/A   Mostly Cloudy
1:53 PM 30.9 °F 19.8 °F 17.1 °F 57% 30.09 in 10.0 mi South 16.1 mph - N/A   Mostly Cloudy
2:53 PM 30.9 °F 18.7 °F 17.1 °F 57% 30.09 in 10.0 mi South 19.6 mph 27.6 mph N/A   Overcast
3:53 PM 30.9 °F 20.7 °F 17.1 °F 57% 30.11 in 10.0 mi South 13.8 mph - N/A   Overcast
4:53 PM 30.0 °F 19.1 °F 21.0 °F 69% 30.11 in 3.0 mi SSW 15.0 mph 24.2 mph 0.00 in Snow Light Snow
5:25 PM 28.4 °F 17.0 °F 21.2 °F 74% 29.98 in 2.0 mi SSW 15.0 mph - 0.00 in Snow Light Snow
5:46 PM 26.6 °F 14.3 °F 21.2 °F 80% 29.98 in 2.5 mi South 16.1 mph - 0.00 in Snow Light Snow
5:53 PM 27.0 °F 16.1 °F 21.0 °F 78% 30.12 in 2.5 mi South 12.7 mph - 0.00 in Snow Light Snow
6:04 PM 28.4 °F 16.6 °F 23.0 °F 80% 29.98 in 5.0 mi SSW 16.1 mph 23.0 mph 0.00 in Snow Light Snow
6:53 PM 28.0 °F 16.5 °F 21.9 °F 78% 30.14 in 9.0 mi SW 15.0 mph - 0.01 in Snow Light Snow
7:53 PM 28.0 °F 16.1 °F 24.1 °F 85% 30.14 in 10.0 mi SW 16.1 mph - 0.00 in   Overcast
8:53 PM 27.0 °F 14.7 °F 23.0 °F 85% 30.14 in 10.0 mi WSW 16.1 mph - N/A   Overcast
9:53 PM 27.0 °F 15.2 °F 23.0 °F 85% 30.10 in 2.0 mi WSW 15.0 mph - 0.00 in Snow Light Snow
10:03 PM 26.6 °F 14.7 °F 23.0 °F 86% 30.02 in 1.8 mi WSW 15.0 mph - 0.00 in Snow Light Snow
10:35 PM 26.6 °F 16.2 °F 24.8 °F 93% 30.02 in 0.8 mi WSW 11.5 mph - 0.01 in Snow Light Snow
10:48 PM 26.6 °F 15.7 °F 24.8 °F 93% 30.02 in 1.0 mi WSW 12.7 mph - 0.02 in Snow Light Snow
10:49 PM 26.6 °F 15.7 °F 24.8 °F 93% 30.02 in 1.0 mi WSW 12.7 mph - N/A Snow Light Snow
11:19 PM 26.6 °F 16.8 °F 24.8 °F 93% 30.02 in 2.0 mi SW 10.4 mph - 0.01 in Snow Light Snow
11:28 PM 26.6 °F 16.8 °F 24.8 °F 93% 30.02 in 1.5 mi WSW 10.4 mph - 0.01 in Snow Light Snow
11:38 PM 26.6 °F 17.5 °F 24.8 °F 93% 30.02 in 1.0 mi WSW 9.2 mph - 0.02 in Snow Light Snow
11:53 PM 27.0 °F 16.1 °F 24.1 °F 89% 30.10 in 1.2 mi West 12.7 mph - 0.03 in Snow Light Snow